Theta_e
319 320 320 321 322 322 323 323 323 322 322 322 322 322 322 322 322 321 320 318 317 317 316 315 313 311 309 308 309 308 307 309 310 310 311 310 308 309 311 310 309 312 315 314 314 312 311 312 313 314 316 316 316 317 317 315 316 319 321 318 316 317 318 318 318 316 315 316 314 311 313 317 316 311 309 310 312 313 313 313 314 315 318 321 322 322 326 332
319 320 320 320 321 322 322 322 322 322 322 322 322 321 322 322 321 321 319 317 317 316 313 311 310 309 310 310 309 308 307 310 311 310 311 310 309 308 309 310 309 312 314 314 313 312 312 312 313 315 316 316 314 316 317 315 316 319 321 318 317 320 317 315 316 315 314 315 314 312 312 314 315 312 311 313 314 313 313 314 313 315 318 321 323 324 328 331
319 319 319 320 321 321 321 321 322 322 322 321 321 321 321 321 320 320 319 318 317 315 312 310 309 311 316 315 309 307 308 310 310 310 311 309 309 308 309 309 309 313 313 313 314 313 312 312 313 315 315 315 314 315 318 316 316 318 319 319 319 320 316 312 313 313 311 312 314 313 310 311 312 311 312 314 315 314 314 315 313 315 316 319 324 325 329 332
319 319 319 320 320 320 319 320 321 321 321 321 320 320 320 320 320 320 319 318 318 315 311 309 308 309 312 310 306 308 310 309 309 309 310 310 309 308 308 309 309 313 313 312 314 312 311 312 313 314 315 315 314 316 317 315 316 317 317 319 318 316 316 312 310 310 308 309 313 312 310 312 311 310 312 314 314 314 315 316 314 315 315 318 325 326 330 333
319 318 318 318 319 318 318 319 320 321 321 320 319 320 320 320 319 319 319 318 317 315 311 309 308 307 307 306 307 310 310 309 310 310 310 309 309 308 308 310 310 313 314 311 312 311 311 312 313 314 315 315 315 316 315 312 314 317 315 315 314 313 315 312 308 309 307 308 312 312 312 313 310 310 312 314 315 315 314 313 314 314 313 320 326 327 331 332
319 318 317 318 317 316 317 319 320 320 320 319 319 319 319 319 319 318 318 318 317 315 313 310 307 306 306 307 309 310 310 311 310 311 313 310 308 308 309 312 312 313 314 311 310 310 311 313 313 314 315 315 316 315 314 310 311 317 315 311 311 311 313 310 307 308 306 309 312 312 312 311 311 312 310 312 315 314 310 309 310 309 312 323 327 327 330 332
318 317 317 317 317 317 317 319 320 320 319 319 319 319 319 318 318 318 318 318 316 315 313 310 307 307 307 309 312 310 309 310 311 312 314 312 309 309 312 314 314 314 313 310 309 311 311 313 313 313 314 314 314 313 313 311 311 316 316 312 310 309 310 308 306 307 306 309 310 309 310 311 313 313 308 309 314 312 308 308 309 309 314 325 327 327 331 332
318 318 318 318 318 319 319 320 319 319 319 319 319 318 318 317 317 317 317 317 316 315 313 309 307 307 308 311 313 310 308 310 312 313 314 313 311 312 316 315 314 313 312 310 309 311 312 313 313 312 314 313 313 313 312 312 313 316 315 311 310 309 309 306 305 306 306 307 307 308 311 311 310 310 308 311 313 311 307 309 314 316 321 325 326 327 331 332
318 317 317 318 319 319 319 319 319 318 319 319 318 317 317 317 317 316 316 316 316 315 313 309 308 308 309 311 311 309 309 310 311 314 315 314 313 315 317 315 313 312 311 310 309 311 312 314 313 312 312 311 312 313 312 314 314 314 313 311 310 310 309 307 307 307 307 307 307 310 312 310 307 307 310 314 311 307 307 311 318 321 322 324 326 328 331 332
317 317 317 318 319 319 319 319 318 318 318 318 317 316 317 317 316 315 316 316 315 313 311 309 309 309 309 310 309 308 310 312 311 313 315 314 313 314 315 314 312 311 311 310 308 310 312 313 312 311 311 311 311 311 311 313 313 312 311 310 310 309 308 308 309 308 308 308 308 312 313 309 307 308 313 313 307 305 308 313 320 322 320 324 326 327 330 331
317 317 318 318 318 318 318 318 318 318 318 317 317 316 316 316 315 315 315 316 313 310 309 309 309 309 309 308 308 308 311 314 313 313 315 313 312 312 312 312 311 312 311 309 309 310 311 311 309 309 311 312 311 310 310 311 311 311 311 312 310 309 310 309 310 309 310 310 308 311 312 310 308 310 314 311 305 306 309 313 320 323 319 322 326 326 330 331
317 318 318 317 317 317 317 318 317 317 317 316 316 315 315 315 315 315 315 314 311 308 309 309 308 309 308 306 306 309 313 314 313 313 313 312 311 311 311 311 311 312 312 311 310 310 310 310 309 310 311 312 311 311 310 308 309 310 312 313 311 311 312 310 310 309 310 311 308 310 311 312 312 313 313 308 304 307 309 312 317 320 319 319 323 324 327 330
318 317 317 316 316 316 316 317 317 316 315 315 315 314 315 315 314 314 315 313 309 308 309 308 309 309 307 306 307 309 313 315 313 312 312 311 311 311 311 311 311 312 311 311 311 310 310 309 310 310 310 311 311 310 310 308 309 311 311 313 313 312 313 310 309 309 310 310 307 309 310 312 314 313 310 306 305 307 310 312 313 316 317 318 320 321 324 327
317 317 316 315 315 315 316 317 316 315 314 314 314 314 314 314 314 314 313 311 308 308 308 308 309 309 307 308 309 311 314 314 313 312 311 311 311 312 312 311 311 312 311 311 311 310 309 309 310 310 309 310 309 308 310 309 309 312 311 312 314 313 312 310 309 310 312 309 307 309 309 312 313 311 307 305 306 308 310 313 311 311 313 314 317 318 321 324
317 316 315 315 315 314 315 316 314 314 314 314 314 314 314 313 314 314 313 311 309 308 308 309 311 309 307 307 310 314 315 313 312 312 311 312 312 313 313 312 312 313 312 311 310 310 309 310 311 311 308 308 309 310 312 311 310 311 311 312 314 312 311 311 309 309 312 310 308 310 310 312 313 311 307 305 306 308 310 312 311 311 310 310 312 314 316 320
316 315 314 314 314 314 315 315 313 314 314 314 314 313 313 313 314 313 312 310 309 308 308 311 311 308 306 307 310 314 314 313 313 312 312 313 313 313 313 313 313 312 311 310 309 309 309 311 311 310 309 308 311 312 312 312 311 311 311 313 314 312 311 311 310 308 310 312 310 310 311 312 313 312 308 305 306 308 310 312 312 312 311 310 310 310 312 314
315 314 314 314 314 314 314 314 313 314 314 313 314 313 313 313 314 314 312 310 309 309 309 312 310 307 306 308 311 313 313 313 312 312 312 313 313 313 312 312 312 311 310 309 309 311 311 310 309 309 310 310 312 314 312 312 312 312 312 313 312 311 310 310 311 309 308 311 312 311 311 312 313 312 310 307 306 307 310 312 312 312 312 312 311 310 310 311
315 314 314 314 314 314 314 313 314 314 313 313 313 313 313 314 314 313 312 311 310 309 310 311 308 307 307 308 311 312 312 313 312 312 313 313 312 312 312 311 311 311 311 311 310 311 311 310 311 312 312 310 312 313 312 311 312 313 313 312 311 310 310 310 311 310 309 311 313 312 311 312 313 312 312 310 308 308 310 311 312 312 312 311 312 311 311 310
315 314 314 314 314 314 314 313 313 313 313 313 313 313 314 314 313 313 312 311 309 308 309 309 307 308 308 308 311 312 312 312 312 313 312 312 311 311 312 311 312 313 311 312 312 311 312 312 312 313 313 311 312 312 312 313 313 313 313 313 312 311 310 310 310 308 308 312 312 313 312 313 314 313 313 312 309 309 310 311 311 311 311 311 311 311 312 312
314 314 313 313 314 314 313 313 313 312 312 312 313 314 314 313 311 311 311 309 307 306 309 309 308 310 309 310 312 312 312 312 312 312 311 311 311 311 311 310 314 314 312 314 314 311 312 313 313 313 313 313 313 312 312 312 312 313 313 313 314 313 310 310 310 307 307 312 313 313 313 313 313 313 313 313 311 310 311 312 312 313 313 313 312 312 313 313
314 313 313 312 314 314 313 313 312 312 312 313 314 312 310 310 310 310 309 307 306 306 308 309 310 310 310 311 311 311 311 312 312 312 311 311 311 312 311 310 312 312 312 314 313 311 311 313 314 313 312 312 310 310 310 310 311 312 312 312 313 313 311 310 310 308 306 311 313 311 312 313 313 313 314 313 312 311 312 313 314 314 314 313 313 313 313 313
313 313 313 313 313 313 312 312 311 311 312 313 314 311 309 309 308 309 309 307 307 306 308 310 311 311 310 311 310 310 312 312 313 313 312 311 311 312 311 310 312 312 312 313 312 312 313 314 314 310 309 309 308 308 310 311 312 313 312 312 312 313 311 309 309 308 307 310 313 311 312 314 315 314 314 314 314 313 313 313 313 313 313 313 313 313 313 312
313 313 313 313 313 312 312 311 311 311 312 314 314 311 311 308 307 309 309 308 308 307 309 311 312 313 311 311 311 310 311 311 312 314 312 311 311 312 311 311 311 312 312 312 313 314 313 313 310 306 306 308 308 308 310 311 311 313 313 312 313 314 312 309 310 309 307 308 310 312 313 314 315 314 314 313 311 311 310 308 308 309 311 312 312 312 310 310
313 313 312 312 312 311 311 310 311 312 312 314 313 310 308 307 307 309 309 309 309 308 308 309 313 315 312 311 312 310 310 310 311 313 312 311 311 312 311 310 311 311 311 311 313 314 313 308 304 305 308 310 310 310 311 311 311 314 316 316 316 316 314 312 311 309 308 307 308 311 312 312 314 314 313 311 307 307 306 306 307 307 308 308 307 308 307 307
313 312 312 311 310 310 310 311 311 312 312 313 312 309 308 309 307 308 308 308 309 308 307 308 312 315 312 311 311 310 310 311 311 312 311 310 311 311 310 310 310 311 311 311 312 314 312 304 302 306 309 312 312 311 313 314 312 313 316 317 317 315 314 314 312 311 311 311 309 310 309 309 313 314 313 311 309 310 309 308 309 308 308 307 307 309 309 308
312 311 311 310 310 310 310 311 311 311 312 312 311 308 309 309 307 308 309 308 309 308 309 309 310 312 312 311 312 312 311 312 310 310 311 310 310 309 310 309 309 310 310 310 311 312 308 303 305 309 311 314 314 311 315 316 312 311 314 316 316 316 317 317 315 313 312 311 309 308 310 309 312 313 313 311 312 313 311 311 310 309 310 310 311 312 311 310
312 311 310 310 310 310 311 311 311 311 312 311 309 308 309 309 308 308 308 308 309 309 310 308 307 310 312 310 311 311 310 312 311 311 311 310 309 309 310 310 309 309 308 309 312 310 306 304 307 311 312 314 313 312 315 314 311 313 314 316 316 317 320 320 316 314 312 311 311 311 312 310 309 313 313 310 311 313 312 311 311 311 311 311 311 310 310 310
312 310 310 310 310 311 311 310 311 311 311 310 308 309 310 309 308 307 307 308 309 310 309 307 306 310 311 309 310 310 310 312 313 312 309 308 308 309 311 311 311 311 308 309 312 310 308 309 310 311 312 312 314 316 315 313 313 315 311 313 315 316 319 318 315 313 311 311 311 312 313 310 309 313 313 310 310 312 312 311 312 312 311 310 310 309 309 309
311 310 310 310 310 310 310 310 310 310 310 308 308 310 310 308 307 307 308 309 310 309 307 307 308 310 310 309 311 311 310 312 313 312 309 308 308 309 310 310 309 310 309 311 314 311 309 310 309 311 312 313 313 311 311 315 316 312 307 311 314 314 315 315 313 311 310 310 312 312 311 309 309 313 314 310 310 312 312 311 311 311 310 310 309 309 309 309
311 310 309 310 311 310 310 309 309 309 309 309 309 310 310 308 306 307 308 309 311 309 306 307 310 311 310 309 311 311 311 312 312 311 311 310 309 308 307 308 309 312 314 314 314 311 308 307 309 312 312 310 308 305 307 314 313 309 311 313 313 313 313 312 311 310 310 312 311 309 307 308 308 311 314 312 310 312 312 312 311 311 310 309 309 308 308 308
311 310 309 310 310 310 311 310 309 309 309 310 310 310 309 308 307 307 308 310 312 309 306 307 310 311 310 310 311 311 312 312 311 312 311 310 309 308 308 309 310 313 315 314 313 311 310 309 311 311 308 307 309 308 306 307 308 310 314 314 313 313 312 311 310 310 312 312 309 305 305 308 308 310 312 311 309 309 311 312 312 311 310 310 309 308 308 308
311 310 310 310 310 310 311 311 309 308 309 311 311 309 307 308 308 308 308 310 311 310 309 309 310 311 311 311 313 313 314 314 312 313 312 312 310 310 312 312 312 313 312 311 313 313 313 312 311 310 307 308 313 312 307 307 309 312 313 312 313 313 312 313 313 312 312 311 306 304 305 308 309 310 310 310 309 307 309 312 312 310 309 309 309 308 308 309
311 310 310 310 310 310 311 311 309 307 309 311 310 308 308 309 308 309 309 308 310 311 310 310 310 311 311 311 313 314 315 314 313 313 313 313 312 311 313 314 315 317 314 313 314 313 314 314 312 312 310 309 314 313 310 310 310 312 314 312 312 313 313 314 312 309 310 309 305 304 306 309 310 310 311 311 310 308 307 309 310 309 308 307 307 307 308 310
310 310 311 311 310 310 312 311 308 308 310 309 308 308 310 309 309 311 309 308 310 309 309 311 311 311 312 313 313 313 314 314 313 314 313 313 312 312 313 312 313 317 316 313 314 313 314 314 313 313 312 311 313 313 314 314 311 313 316 314 312 313 313 313 311 310 310 309 306 304 307 310 310 309 310 309 309 309 307 305 306 307 306 306 306 307 309 311
310 310 311 311 311 311 313 311 308 310 310 308 307 309 310 309 310 311 309 308 310 309 310 311 312 312 313 314 314 313 314 315 313 313 313 313 312 313 313 311 312 316 315 312 312 312 313 313 311 311 310 311 313 313 314 314 312 311 312 312 312 313 312 309 307 308 308 308 308 307 308 311 311 310 310 308 307 308 307 305 306 308 306 306 309 310 311 311
311 311 311 311 311 312 313 311 310 311 309 307 308 309 310 311 310 311 310 308 310 310 310 311 312 313 312 312 313 313 314 315 315 314 314 314 314 313 313 313 312 313 313 314 314 312 311 312 312 311 309 309 312 312 313 314 313 310 310 310 310 313 314 309 305 304 305 308 310 309 310 311 310 310 310 309 308 308 306 306 307 308 308 309 313 313 311 311
311 311 312 311 311 312 313 313 312 311 309 308 308 310 314 313 310 312 310 309 310 310 311 312 313 313 312 312 313 313 314 315 314 314 314 314 313 313 313 313 313 311 312 314 315 315 313 312 312 314 313 310 309 310 312 313 312 310 311 312 309 310 312 310 308 307 306 309 310 309 310 309 308 309 310 309 310 310 308 308 308 308 310 312 313 312 311 310
311 311 312 312 311 312 314 314 313 310 309 310 309 312 317 314 311 312 311 309 310 311 312 313 313 313 313 312 312 312 313 315 314 314 314 313 313 314 313 312 313 311 310 312 313 316 317 313 311 313 314 311 310 312 312 311 310 310 311 311 310 311 311 308 309 310 309 310 310 308 306 307 308 309 310 310 311 311 309 308 307 308 311 313 312 311 310 309
311 312 312 312 311 312 314 314 312 310 310 310 308 312 318 318 314 313 313 311 311 311 312 313 313 313 313 312 313 312 312 314 314 313 314 313 313 313 312 312 315 312 309 311 312 314 317 314 313 312 312 312 311 312 313 312 310 308 308 309 310 311 311 310 309 309 310 310 310 309 306 307 310 310 310 310 311 311 310 309 308 309 312 313 312 311 310 309
311 313 313 311 312 313 314 313 311 311 311 310 309 313 317 318 315 312 313 314 313 311 312 314 313 312 313 313 313 312 313 314 314 313 314 313 311 311 310 311 314 311 309 311 313 314 313 312 313 312 311 312 312 313 315 315 310 308 308 309 310 309 308 309 308 307 309 309 308 309 307 308 310 309 310 310 309 310 311 309 309 310 312 313 312 311 311 310
311 314 314 311 312 313 313 313 313 313 312 311 313 316 315 315 314 313 311 312 315 313 311 313 314 313 314 313 312 312 313 313 313 313 313 312 311 311 311 311 312 310 309 310 313 314 312 311 314 314 312 313 314 312 311 314 314 312 309 310 312 311 310 311 311 308 307 308 308 308 308 309 312 309 308 308 307 308 309 309 309 310 312 312 311 311 311 309
312 314 313 311 312 312 312 314 315 314 313 310 312 315 314 313 313 312 310 312 316 317 313 313 316 315 314 313 312 313 313 313 314 313 313 313 312 313 313 311 310 309 310 311 312 315 315 314 315 314 313 313 312 309 307 310 315 312 310 311 312 312 311 312 313 310 306 305 305 306 307 310 312 308 305 305 304 304 304 306 308 310 311 312 311 310 309 309
311 311 309 309 311 311 313 315 314 314 313 310 311 312 312 315 315 312 311 312 315 315 314 316 316 313 314 315 314 314 312 313 314 313 313 313 312 313 312 310 310 310 311 312 312 314 315 316 315 313 313 313 311 310 309 310 313 311 311 312 311 312 314 312 311 310 308 307 307 307 308 311 313 308 306 305 304 304 304 304 307 310 310 311 310 309 308 308
308 308 308 309 309 310 314 315 313 314 312 310 313 313 311 314 314 311 311 314 316 315 316 319 315 311 317 318 314 313 312 313 314 313 314 314 312 312 311 309 310 311 311 312 312 312 312 315 316 313 313 314 313 312 312 312 311 310 312 312 311 313 314 310 308 309 309 310 310 310 310 311 312 310 309 307 305 307 306 303 306 310 311 310 309 308 307 307
306 308 308 307 307 309 312 312 312 314 312 311 314 315 313 313 312 311 313 316 317 317 316 317 314 314 319 318 313 313 314 316 316 314 315 315 313 312 312 310 310 311 314 317 316 312 314 316 315 314 315 315 315 315 315 315 312 312 315 314 312 313 312 310 309 309 310 310 310 310 311 310 309 308 308 308 307 307 306 303 304 309 310 310 309 308 307 306
306 308 309 307 307 309 310 309 311 313 311 310 312 314 315 316 313 312 315 315 314 315 316 316 315 316 318 315 314 314 313 316 318 315 313 314 312 312 312 311 311 314 317 320 316 313 317 317 313 313 315 314 315 316 317 318 316 314 317 317 314 312 312 313 312 310 311 310 309 311 313 311 309 308 308 309 309 309 307 304 305 308 310 310 309 308 307 306
304 307 308 308 309 309 309 309 312 313 311 310 311 313 315 316 315 313 314 313 313 314 317 316 315 315 314 313 314 315 314 315 316 315 314 315 314 312 310 310 310 313 317 317 314 314 316 315 313 314 315 314 316 318 319 318 317 316 317 316 314 313 312 313 313 312 313 312 310 312 314 312 311 309 309 310 310 310 308 306 307 309 309 309 308 307 306 305
303 304 303 305 308 309 309 310 311 312 311 310 311 313 313 315 316 315 314 313 312 314 317 317 315 313 313 313 313 315 315 313 314 316 316 316 317 314 312 311 310 311 314 312 312 316 314 312 314 315 314 315 317 318 318 317 316 316 317 315 314 313 312 314 314 314 315 313 312 314 314 313 311 310 311 312 310 310 309 307 309 310 309 308 307 306 306 305
300 301 300 302 305 306 308 309 310 311 312 311 312 312 313 314 315 316 315 315 315 315 316 317 318 316 315 313 312 314 315 313 314 316 315 314 316 316 314 313 312 312 313 312 313 316 314 313 316 314 312 314 316 316 318 318 316 316 318 316 314 313 313 313 314 314 315 314 314 316 317 315 312 310 312 312 311 310 310 309 309 309 309 308 307 307 307 305
300 301 302 303 304 304 306 308 310 312 312 311 312 312 312 313 314 315 315 316 318 317 314 316 319 318 315 314 314 314 313 313 314 315 313 313 315 315 314 314 314 313 313 310 311 312 311 315 318 314 311 313 315 315 315 315 315 315 317 316 314 313 313 313 313 314 314 314 314 316 317 315 312 311 312 312 311 309 309 308 308 309 309 308 307 308 307 305
298 298 300 304 304 303 305 307 310 312 311 311 312 311 311 312 312 315 315 314 316 317 315 316 318 317 315 313 314 315 315 318 321 316 312 313 314 313 314 315 315 314 312 311 312 311 310 314 316 312 311 314 315 314 313 312 313 313 315 315 313 313 313 312 313 314 314 314 314 314 315 313 310 310 311 311 310 308 308 308 308 309 310 308 308 308 307 305
298 297 298 303 304 303 304 306 308 311 312 310 311 311 311 312 313 314 314 314 315 315 315 317 318 317 317 315 314 317 317 318 320 316 313 316 316 315 317 316 313 312 312 312 314 313 312 313 313 311 311 315 313 311 311 312 312 311 313 313 313 313 313 312 313 313 313 314 314 313 313 312 311 310 311 311 310 309 309 310 310 310 309 308 308 308 306 305
Wind_Speed
33 33 32 32 31 30 29 29 28 27 26 24 23 23 22 22 22 23 24 25 24 24 24 23 23 24 23 20 19 16 14 15 16 15 17 20 21 18 11 9 12 10 9 12 11 10 7 6 7 7 8 4 1 0 1 2 1 2 2 2 2 2 2 3 5 3 1 3 7 7 8 7 6 5 3 3 3 2 2 4 2 1 4 2 2 3 7 11
34 34 32 32 32 30 29 28 28 27 26 25 24 23 21 21 22 23 24 25 24 24 24 24 25 25 23 20 18 17 15 15 13 14 27 26 17 16 15 12 11 11 11 14 14 12 9 7 8 7 5 3 0 0 2 1 1 1 1 2 3 1 1 1 3 3 1 2 7 8 6 4 3 6 5 4 5 3 5 5 4 5 6 6 2 4 10 11
35 35 33 32 31 31 29 27 28 27 26 25 24 23 21 21 23 23 24 25 24 24 24 25 25 23 22 20 18 17 15 10 6 15 30 27 19 16 15 14 13 13 14 14 16 14 11 11 11 8 3 2 1 1 2 1 1 1 1 4 2 1 1 1 1 2 1 1 6 8 4 2 1 3 4 4 3 4 8 6 6 8 9 9 6 6 12 13
35 35 33 31 30 31 29 27 27 27 27 26 25 24 22 22 23 24 24 24 24 24 24 25 24 23 22 20 18 18 14 6 4 14 23 22 22 19 15 15 14 15 14 13 15 14 12 12 11 5 3 2 1 1 3 1 1 2 2 2 2 1 1 2 1 1 1 1 3 7 6 4 2 1 4 4 4 5 8 7 8 9 8 10 9 9 15 15
35 34 32 32 31 31 29 28 28 27 27 27 26 25 24 24 23 24 23 22 23 23 23 24 24 23 22 19 19 20 13 4 4 11 16 19 22 20 16 15 15 17 15 12 13 12 10 11 8 3 2 3 3 3 3 2 0 3 1 2 3 2 1 3 1 1 1 0 4 8 7 5 4 3 4 6 7 3 1 2 4 5 2 7 9 11 16 17
36 34 32 32 32 32 31 30 28 26 26 27 27 25 25 25 24 23 22 21 23 23 22 22 23 22 21 20 21 20 11 4 1 6 14 19 21 20 17 15 16 17 15 12 12 12 9 8 8 6 3 3 4 4 3 1 1 2 1 1 1 0 1 2 1 1 1 2 5 6 4 5 6 4 1 6 9 1 4 2 2 3 1 5 10 12 14 17
36 33 32 31 31 32 33 31 29 27 25 26 27 26 25 25 24 23 21 22 22 22 22 22 23 23 21 20 19 13 8 4 0 2 10 17 23 21 17 16 17 18 16 13 12 10 9 9 9 6 5 4 3 3 4 3 1 3 3 3 2 1 2 2 1 2 1 2 2 2 3 4 6 4 2 6 10 3 4 2 3 1 3 6 10 12 14 17
35 33 31 31 31 32 32 30 28 27 26 26 27 27 26 25 24 23 22 22 21 21 22 23 23 22 22 20 13 7 7 4 1 1 7 16 23 20 17 17 17 18 17 16 15 11 9 10 8 5 5 4 4 6 5 5 2 3 3 4 3 1 2 3 2 3 1 1 2 2 4 2 1 0 1 8 7 3 1 1 1 3 5 6 9 11 13 14
35 33 32 31 31 31 30 29 28 28 26 26 27 27 26 25 23 22 21 20 20 21 21 23 23 22 23 16 8 6 7 5 2 1 6 15 19 18 18 16 17 19 16 17 16 13 9 7 5 5 4 3 5 7 6 6 3 3 4 5 5 2 2 2 3 3 1 1 1 4 4 2 1 2 6 7 2 2 2 1 1 3 6 7 8 10 12 13
36 34 33 32 31 30 29 28 28 28 27 26 25 26 25 23 22 21 20 20 20 22 23 23 23 24 21 11 7 7 5 6 6 4 7 14 16 18 19 16 19 20 15 14 13 12 8 5 4 3 2 3 4 5 3 4 2 5 7 7 5 3 2 1 3 3 1 2 1 3 4 2 1 1 6 2 4 2 2 2 1 3 7 7 7 8 10 11
38 36 34 33 31 30 29 28 29 28 27 25 22 22 22 21 21 20 19 19 21 23 24 23 25 26 18 8 8 6 3 5 8 8 11 14 14 17 17 14 19 19 15 11 12 16 10 6 9 2 0 5 6 4 1 2 3 8 10 9 6 3 4 2 3 3 1 3 2 1 3 2 3 3 4 3 4 2 2 4 2 4 5 5 6 6 8 9
39 38 35 33 32 30 29 28 29 27 25 23 21 21 21 21 21 20 18 18 21 24 24 24 26 24 12 4 5 4 4 7 9 11 13 14 13 15 13 12 17 18 15 9 12 17 10 10 12 3 0 7 8 4 3 2 4 7 5 6 4 3 4 2 2 1 2 2 1 1 2 4 6 7 2 4 3 2 1 4 3 4 4 3 4 5 6 8
40 39 36 34 32 30 29 29 28 26 24 24 22 21 21 20 19 18 17 18 21 23 24 24 26 20 9 3 4 5 6 8 10 11 13 14 13 12 10 10 14 15 14 10 12 14 11 12 10 4 1 5 5 3 6 5 2 5 1 1 4 4 3 2 1 0 1 2 2 3 4 5 7 7 2 4 3 2 3 4 3 4 4 4 4 4 6 8
40 38 37 35 33 32 30 29 28 26 25 23 23 22 21 19 18 17 17 18 21 23 24 25 24 15 5 3 3 6 8 8 11 12 13 14 13 11 9 11 13 12 11 10 11 11 10 12 11 7 1 2 4 5 7 5 0 5 4 1 3 5 4 3 2 1 3 2 2 3 6 5 3 2 3 3 1 2 5 4 3 3 3 4 4 5 6 8
39 38 37 36 35 34 31 29 28 26 24 23 22 22 20 18 16 15 16 18 21 23 24 24 20 10 3 3 2 8 10 7 10 13 13 14 14 11 9 11 10 9 9 8 10 11 11 12 10 6 2 2 5 7 6 4 1 3 4 4 3 4 3 4 2 2 1 2 1 4 5 6 4 0 4 3 1 2 6 5 3 4 4 4 4 5 6 7
38 37 36 36 36 35 33 29 27 27 25 24 22 20 19 17 15 15 16 18 20 24 23 19 16 7 3 3 3 7 8 6 11 13 13 15 12 10 12 13 9 7 8 8 12 13 10 8 4 1 3 1 5 7 7 4 3 1 3 4 4 4 4 3 2 2 2 2 3 4 4 3 1 1 3 2 1 0 4 6 5 5 4 4 4 4 5 6
38 37 36 36 36 35 34 30 29 28 25 24 22 21 19 16 15 15 15 18 20 23 19 14 14 6 1 3 4 6 6 7 12 13 15 14 10 13 16 10 7 10 11 11 11 8 4 4 1 1 3 2 2 6 7 5 5 4 2 1 1 3 4 3 3 1 1 2 5 5 5 7 2 1 2 2 1 2 4 6 6 5 4 4 3 4 5 6
38 37 36 36 35 36 35 32 31 28 27 26 23 21 20 17 17 17 18 21 20 17 10 8 12 5 2 5 4 4 6 10 14 14 15 12 10 15 13 7 8 11 11 8 4 1 1 1 1 3 3 2 3 7 8 5 6 8 6 4 2 2 4 3 2 1 1 2 5 5 7 12 9 6 6 3 3 3 7 7 6 6 6 5 4 5 6 6
38 36 37 36 36 36 35 34 31 29 29 26 23 23 20 17 15 14 17 18 13 7 4 7 9 3 3 6 4 5 10 13 13 11 12 12 12 12 8 8 9 9 9 7 3 1 2 2 2 5 6 6 8 9 5 2 5 9 7 5 5 5 3 2 2 2 1 3 6 8 8 11 11 9 9 4 3 4 8 7 7 7 6 6 6 6 6 7
38 37 37 36 37 36 35 34 31 31 30 27 30 25 16 13 10 8 9 7 3 1 1 8 7 2 3 3 6 12 14 11 6 6 12 13 14 11 6 4 5 4 6 6 5 2 1 5 7 7 8 10 9 4 3 3 4 8 7 4 3 4 2 1 2 2 1 4 6 6 8 11 12 11 12 7 3 5 10 9 9 8 7 6 7 7 7 8
38 38 37 36 37 36 35 34 31 31 29 31 31 15 7 10 7 9 10 3 1 4 3 6 7 4 3 4 10 12 9 6 3 4 12 14 13 11 2 1 6 6 2 2 4 3 2 7 7 3 4 6 6 5 6 5 5 6 6 5 2 2 1 1 1 2 1 3 3 1 6 12 13 12 12 9 6 8 11 11 10 9 7 6 6 8 7 6
39 37 37 37 36 36 35 33 31 30 29 30 21 3 1 4 7 16 15 6 2 4 3 5 7 5 4 6 8 3 2 5 5 3 8 10 8 6 3 4 8 6 1 2 5 4 5 7 4 4 5 8 6 3 5 6 5 4 3 4 3 1 2 2 1 2 1 2 1 1 5 10 11 11 11 10 9 9 8 8 8 6 7 6 6 6 5 6
38 36 37 36 35 35 33 31 29 28 29 26 14 4 3 6 18 27 14 5 3 2 2 2 4 5 4 4 5 2 2 5 6 5 5 7 4 2 5 6 6 5 4 7 7 6 7 4 4 6 8 10 6 2 6 6 3 2 2 4 2 1 2 2 3 3 1 1 2 2 5 9 8 9 10 8 6 6 4 6 7 7 8 8 7 5 5 8
37 36 36 35 34 32 29 29 27 26 26 19 14 10 9 15 26 25 8 4 4 1 1 1 2 4 4 3 4 3 3 2 4 7 5 6 4 2 5 5 5 6 5 7 7 7 3 2 3 5 6 9 7 4 6 6 3 0 2 3 2 3 3 1 4 4 1 1 1 2 6 7 4 6 7 3 1 4 3 4 6 6 7 7 6 6 7 9
38 36 36 35 32 30 30 27 24 24 21 14 15 12 12 19 22 16 6 3 3 1 1 0 2 3 5 4 4 3 3 2 1 2 3 5 4 3 4 2 2 7 6 5 5 4 2 2 3 7 5 5 7 6 6 6 4 2 4 3 2 5 6 4 6 4 2 3 1 2 5 4 1 3 5 0 1 3 2 2 4 3 3 4 4 4 5 6
38 36 36 34 32 34 29 19 19 23 16 13 18 13 12 18 16 10 4 2 3 2 3 3 1 4 7 3 2 3 4 3 2 3 4 3 1 2 4 2 1 3 5 5 3 1 2 1 1 6 8 6 6 6 5 5 5 3 3 2 3 5 8 8 7 4 2 1 1 1 5 4 1 3 3 1 4 5 3 2 1 1 1 1 2 2 3 3
38 35 36 34 36 37 22 12 20 22 11 12 20 14 12 16 11 5 2 2 4 4 3 1 1 6 8 0 1 5 4 4 3 3 3 1 0 1 3 5 2 2 3 3 2 1 4 4 2 4 7 7 6 5 5 7 6 3 1 2 6 7 8 8 7 3 0 1 1 0 2 4 5 3 0 1 4 6 3 3 1 1 1 0 1 2 3 3
37 35 36 35 38 30 13 15 25 20 9 11 18 14 13 14 7 2 3 3 3 3 3 1 1 6 4 1 3 3 1 2 5 3 2 2 2 1 2 5 4 5 2 2 4 1 3 5 6 7 7 6 5 2 3 7 4 0 1 1 4 6 6 6 4 2 2 1 4 2 1 4 6 2 1 1 3 6 3 3 2 1 1 2 2 3 3 3
37 36 35 37 37 20 8 16 22 22 16 11 15 16 14 12 5 1 2 3 3 2 1 2 4 4 2 2 4 3 1 2 1 3 1 2 3 2 2 3 5 9 4 1 2 1 1 2 3 5 6 5 2 3 1 3 2 3 5 5 6 5 5 4 2 3 2 3 5 2 2 4 5 3 2 1 2 6 3 3 2 1 1 2 3 3 3 2
37 37 36 38 33 18 11 13 19 27 19 9 14 18 14 8 4 5 5 4 5 3 1 2 3 4 6 6 3 2 2 2 1 3 1 1 4 4 1 1 5 7 3 4 4 1 1 0 1 1 1 2 5 5 4 2 4 8 7 7 8 5 3 3 2 2 2 4 2 2 2 3 4 3 3 2 1 2 2 4 3 2 2 2 3 3 3 3
38 37 38 39 30 19 14 8 20 30 15 8 16 15 9 4 1 7 5 2 4 3 1 3 3 6 11 12 5 1 2 2 1 5 5 2 3 3 3 2 3 4 2 3 4 1 1 2 1 1 1 2 5 6 6 3 4 5 4 6 7 3 2 2 2 1 4 4 2 3 2 3 5 3 1 0 1 1 2 5 5 3 3 4 3 3 3 2
38 37 38 37 29 21 12 6 21 29 14 11 16 8 5 5 2 6 4 3 5 4 5 6 6 9 14 13 8 4 4 3 1 5 6 4 4 5 3 4 5 3 4 6 3 2 3 2 1 2 1 3 3 6 5 1 1 2 5 7 6 3 2 3 2 2 4 2 2 1 2 3 7 6 5 5 4 4 4 3 3 2 2 3 3 3 3 2
38 38 37 32 28 22 12 10 23 26 16 14 11 2 2 6 7 7 6 4 3 3 5 5 5 9 12 11 7 4 3 3 3 3 2 2 4 4 0 0 3 2 3 5 4 4 3 1 1 2 2 3 3 5 5 4 5 5 7 7 6 5 4 5 3 1 3 0 2 1 1 3 5 5 8 10 5 3 3 2 0 1 2 3 3 3 2 2
38 37 33 28 26 21 11 13 23 25 19 14 7 3 4 7 7 5 6 4 0 3 4 6 8 9 9 6 5 6 3 1 3 4 3 3 4 4 3 2 2 1 3 4 3 5 4 3 4 3 2 2 3 2 1 4 5 3 1 1 4 4 3 4 3 2 2 2 2 1 2 4 2 1 2 3 1 1 1 0 1 2 3 3 2 1 1 3
38 36 30 25 24 18 11 15 23 24 19 9 5 6 8 9 6 5 7 5 2 4 4 6 10 10 6 1 1 5 2 1 2 2 4 6 6 7 7 6 5 2 4 5 3 2 2 1 1 1 1 2 2 2 2 4 4 1 1 1 2 2 2 2 1 0 1 1 2 3 3 3 2 3 2 2 0 2 2 1 2 2 1 1 2 3 4 5
37 31 24 22 23 18 13 16 22 23 16 6 6 8 7 6 3 4 6 5 4 9 11 7 7 7 6 1 0 5 0 2 6 4 3 3 4 7 8 6 7 6 6 6 3 1 2 0 2 1 0 1 0 2 2 1 2 2 2 3 2 1 4 4 1 1 1 3 2 3 4 3 3 6 2 3 2 3 3 3 4 3 3 4 4 5 5 5
33 25 18 17 21 20 15 15 21 22 12 5 9 9 4 2 1 1 4 6 7 11 13 9 4 5 8 4 4 7 3 3 5 4 4 3 2 6 7 3 6 11 7 2 1 2 3 2 2 1 2 2 2 1 2 2 0 2 3 5 3 1 1 2 1 2 1 4 1 2 5 4 3 3 1 3 4 4 5 4 5 5 5 7 6 5 5 4
25 19 12 14 22 21 17 17 20 16 5 4 11 10 2 2 1 2 3 6 9 10 10 8 3 4 7 7 6 8 7 5 5 4 5 5 4 8 10 4 4 10 6 1 1 2 2 2 1 1 0 1 1 1 2 1 1 0 2 2 2 2 3 2 2 2 3 4 2 2 3 3 5 4 0 3 7 8 7 5 6 7 8 8 7 6 6 5
19 12 7 15 23 20 18 19 16 8 2 6 12 9 2 3 1 1 2 5 7 7 8 6 1 1 5 7 7 8 8 7 7 6 5 5 4 6 12 9 4 8 7 3 2 2 1 1 1 1 1 0 0 2 5 4 2 1 1 2 0 2 2 3 2 2 3 3 2 2 1 3 6 5 5 6 8 10 9 7 7 10 11 10 8 7 6 5
11 5 5 17 25 22 21 18 9 5 5 7 7 5 3 3 2 1 1 1 3 2 4 5 4 4 5 4 6 7 7 5 8 8 6 6 5 2 8 10 5 6 5 3 1 2 1 1 2 2 1 1 3 3 4 5 4 3 4 5 4 1 0 1 1 1 1 3 3 2 3 3 2 4 8 6 3 4 7 7 7 9 10 10 9 8 7 6
4 3 6 19 28 25 21 13 5 6 5 3 2 2 2 3 4 3 0 1 1 1 1 3 4 5 5 5 6 7 4 3 6 8 4 6 7 4 6 9 8 8 6 3 2 3 1 1 3 4 2 3 2 1 2 2 1 2 4 5 6 4 3 4 4 1 1 1 2 1 3 3 1 2 5 2 2 1 3 6 7 8 10 10 8 7 7 6
4 3 7 20 31 28 18 8 4 4 2 2 2 3 2 3 5 6 3 1 2 1 1 2 3 3 4 5 6 7 6 4 5 7 5 7 10 6 4 7 10 13 10 5 3 2 1 3 4 3 2 2 2 1 1 2 2 1 2 2 3 3 4 5 5 4 2 1 1 1 2 3 1 1 2 1 1 1 1 2 6 8 9 9 8 7 6 6
2 3 5 15 29 24 11 7 6 3 2 2 2 3 2 2 4 5 4 2 1 2 1 1 2 2 2 3 4 8 9 5 5 9 7 7 6 3 2 7 11 12 10 5 3 2 1 3 4 2 1 0 1 1 1 0 1 3 4 2 3 3 2 1 1 2 4 4 3 2 4 4 1 1 2 1 2 2 2 3 6 9 8 8 8 8 6 6
1 3 4 10 23 18 7 8 11 8 4 3 3 3 1 1 3 5 7 5 2 2 3 2 2 2 2 3 4 9 11 6 5 9 5 3 3 1 2 10 14 12 8 5 6 6 4 4 5 4 3 2 1 2 2 2 3 4 3 3 3 2 4 3 1 2 3 5 7 5 6 4 2 1 1 1 2 3 3 4 5 8 8 8 7 6 6 6
2 3 3 4 11 9 4 4 6 6 7 7 6 5 3 2 2 2 6 5 1 2 4 2 1 2 3 4 3 5 10 5 2 6 3 1 2 2 0 8 12 11 5 2 6 8 5 4 6 7 6 5 6 7 6 5 4 3 2 4 7 8 8 5 2 3 4 4 6 7 7 3 2 1 2 2 3 4 5 4 4 4 6 7 6 6 6 6
1 2 2 2 2 1 1 1 1 5 8 9 7 4 4 4 2 2 2 3 2 1 2 1 2 2 3 5 5 5 10 3 3 4 6 3 2 1 1 3 5 4 2 4 7 7 3 3 6 10 10 9 10 9 5 5 6 7 9 10 10 11 11 5 2 4 6 3 4 8 9 4 3 6 6 4 5 6 6 8 7 6 7 6 5 5 5 5
0 1 2 2 1 2 1 0 3 6 8 9 7 4 5 6 4 1 1 1 3 3 2 2 3 4 5 9 7 5 10 5 2 3 5 3 1 1 1 1 1 1 3 3 7 5 3 4 8 12 13 11 6 4 4 7 8 12 12 10 9 10 11 9 8 9 6 4 5 11 12 11 9 8 7 6 7 6 7 11 11 9 8 6 5 5 6 6
1 1 0 1 0 3 3 4 6 8 10 10 4 4 8 7 6 5 2 1 2 3 1 1 5 8 9 11 8 4 6 5 2 2 3 3 3 2 2 2 1 1 2 3 4 3 3 7 8 10 13 11 2 3 5 8 7 8 8 10 12 12 13 13 14 13 8 6 12 14 13 16 11 9 9 9 8 8 8 9 7 6 7 6 6 8 8 8
1 2 1 2 1 3 3 6 8 10 12 11 4 5 11 11 8 5 3 3 3 3 3 4 7 7 6 9 8 6 7 7 6 5 3 3 3 3 2 1 1 1 2 4 3 1 3 6 6 8 12 12 4 3 4 6 5 5 7 10 12 13 14 15 15 15 12 11 16 9 7 12 10 9 9 6 4 4 2 4 5 7 8 8 8 10 9 9
1 1 0 1 3 4 4 5 8 9 10 9 6 6 8 11 9 4 2 4 5 4 4 5 6 5 4 5 6 6 9 10 8 8 8 7 4 3 4 3 2 1 1 3 3 1 3 4 4 6 7 9 5 3 2 3 4 5 5 6 10 11 13 14 15 15 12 13 16 6 2 9 6 7 5 1 4 3 4 6 9 10 9 9 10 10 9 9
2 2 1 1 2 3 3 3 4 7 8 8 8 6 9 13 10 6 2 1 2 5 6 6 7 5 2 3 5 5 6 5 4 8 12 11 7 6 5 3 6 7 4 3 3 2 3 2 2 4 6 7 3 4 4 3 2 2 3 7 12 12 12 13 14 14 12 14 16 9 6 9 5 7 4 2 4 6 8 10 11 9 9 10 12 11 10 10
3 2 2 2 2 1 2 3 3 6 6 6 6 5 6 9 8 7 5 1 0 3 4 7 9 5 3 6 8 5 3 3 1 2 6 5 3 4 2 3 8 10 8 6 4 2 5 4 2 5 9 5 0 3 6 6 2 4 6 11 16 14 14 13 11 12 12 13 12 10 9 6 7 9 8 6 6 8 10 11 10 9 9 10 9 10 9 9
Wind_Direction
189 190 192 190 187 186 185 187 186 184 183 184 187 188 188 189 191 193 193 192 193 196 198 195 197 198 200 206 212 218 216 213 217 214 223 236 235 237 247 235 216 208 185 174 177 167 146 151 155 149 152 148 325 157 139 31 26 212 183 204 205 178 192 177 173 176 38 127 154 170 190 194 165 161 178 167 166 119 158 208 215 207 233 235 74 122 142 151
189 189 191 190 187 186 185 187 187 183 183 183 186 187 185 185 189 192 191 191 192 193 192 191 197 198 196 200 207 212 212 217 219 226 237 238 237 238 236 232 213 199 186 180 183 169 158 169 161 156 164 168 290 205 179 356 325 157 131 212 208 160 126 170 170 153 17 98 145 164 188 214 183 155 173 195 162 155 205 206 211 230 215 192 187 155 154 161
188 189 191 189 188 187 186 188 186 183 183 183 184 185 183 185 189 190 189 190 191 192 190 190 196 197 199 200 202 204 203 212 224 243 245 239 234 237 231 227 216 198 189 189 190 182 180 175 163 163 167 160 132 186 167 74 291 130 192 217 177 105 107 117 214 143 74 53 151 156 161 222 214 139 173 194 160 184 221 211 200 220 217 192 167 155 164 169
187 189 191 189 189 188 188 189 186 183 183 182 183 184 183 184 187 188 188 189 191 192 189 190 192 192 193 192 192 189 186 205 238 242 245 237 231 232 226 219 210 199 195 197 195 192 188 168 158 163 165 147 81 175 149 88 256 144 209 226 98 156 161 127 213 57 58 313 178 143 144 188 150 161 185 171 180 214 227 225 219 223 213 186 158 156 170 175
185 187 190 190 190 190 189 188 185 183 182 182 183 184 183 183 187 187 187 187 189 190 187 188 189 187 184 181 182 179 180 210 230 227 230 227 223 222 219 210 203 199 198 199 192 186 179 163 155 152 159 151 136 161 141 56 22 148 188 6 71 196 151 97 81 66 74 269 168 147 153 160 130 181 196 188 211 224 205 221 248 261 225 167 155 158 171 181
186 185 188 191 190 191 191 188 184 182 180 181 182 183 183 185 187 186 184 184 186 186 185 185 183 180 177 175 178 182 197 216 160 219 216 209 204 207 209 201 196 196 199 196 180 171 168 171 178 175 151 141 153 154 131 78 300 189 167 63 106 212 69 84 85 108 177 189 165 154 139 130 156 194 176 217 229 118 74 67 353 321 349 138 144 157 173 185
183 181 184 187 188 188 189 185 180 179 178 179 181 182 184 185 185 184 183 182 184 183 182 181 178 174 170 169 174 190 232 243 60 241 214 197 188 192 196 191 191 191 193 185 170 167 170 184 193 180 145 140 163 143 130 129 277 238 159 141 157 18 37 57 75 127 213 212 143 114 123 145 193 195 92 233 235 162 106 69 10 3 147 144 150 167 181 188
179 179 182 184 184 182 180 178 175 176 175 175 180 182 183 184 183 182 182 181 181 180 179 178 173 169 166 163 167 198 235 237 336 180 203 192 180 181 185 184 186 186 186 184 179 174 174 182 189 188 157 147 153 142 149 147 177 234 155 141 158 75 70 69 101 131 172 215 94 143 158 135 255 63 218 239 230 172 109 17 74 130 144 168 175 178 183 190
176 177 181 181 179 176 174 174 174 175 172 173 179 182 184 184 183 182 181 181 180 178 176 174 169 164 163 161 166 202 211 219 248 171 186 186 178 176 179 181 183 182 181 184 186 179 178 183 189 206 160 131 149 143 168 183 186 188 133 134 143 108 79 84 105 105 86 111 138 179 146 67 28 351 260 238 179 70 311 348 133 161 170 186 187 186 187 192
174 175 178 177 174 173 173 173 172 172 172 172 177 182 184 185 185 181 180 180 178 176 173 170 166 163 162 161 178 201 208 209 216 200 177 180 179 175 175 180 181 180 176 179 186 183 194 195 173 204 126 118 152 136 168 199 153 112 114 108 109 103 79 60 104 89 87 97 337 202 137 81 104 272 250 191 59 9 235 181 164 206 197 194 189 192 194 197
173 172 172 173 173 172 172 171 171 170 169 170 172 178 182 184 184 180 180 179 176 173 170 167 166 165 165 170 189 201 199 190 193 183 174 178 182 175 173 179 181 181 174 175 193 194 208 201 164 163 154 146 138 112 126 174 106 120 128 108 84 96 99 67 108 93 310 113 9 245 138 104 122 232 241 89 36 354 213 190 175 217 216 203 194 195 199 204
172 170 170 171 171 171 172 170 169 167 167 169 172 174 175 176 177 177 177 174 172 171 168 167 168 165 160 181 208 204 187 183 178 173 173 177 181 174 169 178 182 186 182 181 201 201 213 191 163 114 326 157 140 132 137 127 112 127 143 125 111 143 119 61 94 65 306 119 27 289 208 219 195 220 205 76 354 356 240 210 183 213 223 216 208 206 208 207
170 169 169 170 171 172 172 170 168 168 169 171 171 170 169 171 173 174 173 170 169 168 167 168 166 162 160 190 206 198 185 176 172 172 175 174 173 170 170 179 183 192 198 205 204 201 206 181 151 81 63 143 133 144 122 103 122 136 155 151 143 188 168 65 44 267 221 108 340 260 250 243 205 220 119 69 333 322 257 220 196 212 213 219 217 218 219 208
169 169 170 171 172 173 172 169 168 170 171 170 167 166 167 168 170 170 167 166 166 166 167 167 162 160 177 190 178 188 178 168 173 175 176 171 161 157 164 174 179 192 205 219 208 196 192 164 123 94 47 53 120 144 118 97 1 137 139 201 172 203 177 84 38 237 181 138 320 226 247 263 210 180 79 48 338 276 260 235 207 215 212 223 215 225 230 216
170 169 171 173 172 173 173 169 168 171 168 163 162 164 164 164 165 165 164 163 163 164 163 162 162 158 189 203 174 176 169 168 178 178 178 170 156 146 155 166 173 188 192 204 189 169 164 147 116 104 55 356 142 137 118 107 70 127 162 183 188 218 173 98 65 313 202 136 200 213 239 260 259 100 84 46 37 204 252 254 253 246 229 226 220 228 234 230
169 169 170 172 171 171 172 169 168 168 163 159 160 162 160 159 158 156 161 160 158 161 157 158 168 170 193 183 148 166 173 186 181 178 174 167 162 148 143 145 142 151 152 145 143 137 131 121 97 87 97 148 168 136 126 134 144 189 228 178 166 201 184 143 118 358 340 134 194 226 260 260 276 33 90 64 47 91 261 260 263 260 246 233 230 232 235 240
168 169 170 170 170 170 170 169 167 165 161 160 159 158 156 151 149 147 155 156 152 153 151 157 171 177 245 142 145 174 180 188 176 170 169 166 164 150 137 123 116 126 124 121 130 125 86 76 113 206 109 139 184 146 151 172 175 179 238 156 157 203 188 181 149 73 336 216 205 203 247 253 227 133 196 187 180 308 280 265 264 261 261 247 237 241 238 240
168 169 170 169 168 169 169 167 167 163 159 161 159 155 150 141 141 140 141 140 135 136 138 158 168 177 223 171 164 174 156 163 165 162 165 162 156 151 138 119 129 131 125 124 134 122 47 43 200 162 141 154 176 180 177 176 180 178 181 162 146 213 220 220 158 114 237 218 216 197 230 253 253 248 250 215 175 262 271 269 274 267 267 263 254 252 242 241
168 168 169 168 168 167 166 166 167 163 160 161 153 141 132 127 129 129 136 139 135 133 150 170 173 178 183 166 141 123 134 146 153 153 153 154 153 146 123 122 133 135 145 153 163 181 132 127 173 173 173 180 183 197 195 147 171 171 166 154 149 172 212 231 93 46 269 210 220 221 232 255 260 261 265 241 160 253 271 270 270 260 255 255 249 250 242 240
168 168 168 168 168 165 164 166 166 164 164 157 146 137 131 137 135 136 155 163 158 321 215 163 162 105 84 115 127 126 126 128 129 144 149 152 148 131 94 111 126 133 162 163 151 165 208 169 186 193 182 180 178 173 98 83 134 146 143 145 158 171 172 142 84 57 315 232 221 228 246 262 267 267 269 258 189 249 265 262 259 252 243 238 237 243 239 239
167 167 169 168 166 164 165 168 168 166 165 156 153 150 154 159 151 158 158 118 27 331 332 129 110 85 75 106 139 136 122 105 68 132 153 155 151 145 134 170 157 158 164 126 119 121 222 203 194 181 144 141 136 108 94 95 105 132 151 155 164 212 155 82 74 80 31 245 214 185 256 259 259 263 265 258 239 243 249 251 254 253 248 239 235 243 244 251
168 168 169 167 166 166 166 170 172 168 164 162 168 205 230 153 115 143 143 97 70 344 7 104 90 75 72 123 153 161 99 115 109 143 164 160 165 166 156 176 172 160 111 136 133 140 201 210 167 110 99 95 93 106 108 95 103 126 140 153 163 188 145 117 125 104 58 249 231 75 267 264 259 261 260 249 245 241 236 249 264 270 262 255 248 250 261 271
167 167 168 167 167 166 166 171 170 168 168 171 186 223 173 140 129 140 138 91 113 13 18 115 96 99 89 139 184 245 116 132 152 181 189 171 170 156 148 167 166 134 153 178 169 171 191 203 111 120 142 127 110 114 118 107 114 130 133 153 156 141 171 189 156 136 56 318 316 311 277 276 261 256 252 239 248 263 259 260 265 266 260 263 272 281 281 273
165 166 167 166 167 166 165 167 166 170 176 182 202 195 149 140 142 143 127 83 118 18 302 13 65 134 125 148 184 183 126 88 154 163 186 181 151 139 156 150 139 141 177 188 175 175 161 33 95 141 161 148 137 151 156 160 165 215 204 162 133 166 188 31 115 133 137 180 316 303 276 271 244 242 246 221 265 266 259 252 245 243 249 261 277 275 259 258
164 165 165 165 165 164 160 160 167 175 178 191 209 191 147 147 152 148 118 100 127 40 210 150 13 158 145 133 151 156 127 75 32 130 167 181 145 139 145 103 159 171 170 154 159 177 90 29 151 147 150 148 144 162 187 188 174 205 233 199 153 167 149 104 123 145 198 200 81 333 268 257 138 234 238 210 339 251 209 226 242 238 243 253 263 267 254 252
163 163 163 163 161 157 153 157 173 173 172 202 201 176 157 161 161 162 135 99 161 161 166 157 60 161 153 128 118 137 145 135 0 30 114 157 151 129 138 109 321 167 153 137 146 181 90 78 181 152 153 153 158 178 194 196 185 194 218 165 130 137 131 132 151 168 227 222 69 348 263 261 302 254 217 55 309 273 225 205 254 280 263 266 267 286 295 280
162 162 162 161 159 156 152 157 167 164 165 209 195 171 169 170 161 176 151 103 187 166 137 153 324 163 158 178 134 148 163 143 108 79 73 107 118 18 156 162 140 124 146 144 167 174 113 133 171 147 150 156 171 185 186 193 193 181 204 137 131 134 138 146 155 170 344 23 154 132 299 280 275 264 136 15 289 265 219 170 122 101 132 10 332 330 327 309
161 161 160 159 159 158 152 149 159 169 176 189 187 173 166 167 157 174 162 156 179 137 129 188 100 138 144 27 72 97 127 117 131 148 26 53 107 345 177 170 147 126 128 190 190 165 106 163 176 157 159 176 184 178 173 185 183 111 231 134 121 119 119 133 143 134 62 316 220 160 46 271 261 243 124 3 280 256 216 137 128 122 80 10 1 3 355 347
161 160 158 159 161 162 158 152 162 180 180 166 174 169 158 161 156 130 185 189 158 100 88 132 125 129 136 102 69 51 67 38 85 154 70 75 82 41 143 155 124 116 85 344 160 74 23 202 196 170 176 176 129 35 335 202 125 142 162 109 88 81 76 89 113 116 108 253 230 138 57 264 263 245 190 131 264 253 231 116 137 150 67 356 6 9 7 20
161 159 157 159 162 160 147 153 175 179 172 159 166 161 152 159 169 163 190 199 148 115 69 133 156 150 149 140 83 28 113 58 47 120 91 111 62 42 83 108 108 113 74 40 71 56 288 268 306 297 187 140 107 69 16 0 112 144 157 110 93 78 63 75 46 84 178 242 217 80 13 273 269 256 203 193 236 242 157 132 151 142 85 42 25 16 17 25
161 158 158 161 163 158 139 150 187 179 168 155 158 155 149 137 184 174 179 174 131 125 159 159 152 148 159 160 144 127 115 71 159 153 150 162 86 93 145 153 112 106 123 102 77 51 85 116 173 38 38 140 119 83 44 39 128 148 161 129 113 87 88 118 66 121 222 230 114 57 331 247 241 243 149 318 287 251 172 148 143 123 72 47 31 23 22 13
161 158 159 164 163 159 148 157 180 177 170 154 151 158 163 137 193 190 161 147 156 171 185 175 174 170 171 167 150 142 128 102 181 170 153 155 153 153 167 180 161 146 180 172 145 116 106 111 95 50 287 227 150 104 75 45 237 200 158 151 147 132 155 190 180 195 232 236 76 36 284 235 245 256 275 275 250 222 221 176 124 85 46 39 31 23 19 16
161 158 158 165 164 159 158 156 169 175 171 154 149 163 162 160 196 190 159 172 172 149 156 153 161 167 165 162 153 141 118 125 171 171 137 143 165 168 326 179 157 148 176 161 145 146 145 163 162 138 182 238 202 143 140 179 203 188 164 164 169 150 167 197 177 232 261 279 66 346 275 249 257 264 258 254 232 181 212 233 292 340 341 344 355 346 346 49
160 158 158 165 165 161 157 156 167 172 162 152 156 142 147 182 198 166 158 190 92 91 126 126 129 145 157 157 161 160 123 65 167 149 138 153 166 183 203 199 186 77 102 137 161 172 178 193 177 162 153 175 203 224 162 143 156 191 178 160 181 170 186 196 176 212 223 101 92 150 229 228 217 104 233 243 21 62 228 278 303 281 290 298 303 282 176 100
158 158 159 162 165 164 152 154 166 167 158 153 166 159 173 194 192 165 165 170 134 126 113 121 134 145 161 66 58 184 140 72 179 136 140 170 180 187 189 190 193 165 138 160 183 175 195 245 83 48 294 167 178 299 351 98 121 209 355 37 211 189 134 118 82 127 105 75 156 182 241 251 264 288 250 174 245 251 216 164 195 234 239 206 178 149 131 113
156 156 158 161 169 170 155 155 163 163 161 158 164 177 200 200 179 174 159 131 138 138 119 122 142 151 166 103 268 220 231 109 169 165 164 194 205 195 193 188 186 191 179 163 157 168 181 309 15 21 56 83 333 309 346 87 143 150 167 185 204 44 98 116 111 57 36 258 197 166 246 261 276 278 257 142 174 178 160 161 162 155 143 148 147 135 128 118
154 153 152 162 174 173 161 157 159 161 166 177 179 188 200 176 145 148 131 111 128 138 132 142 173 174 173 169 188 197 174 123 169 185 170 174 214 199 197 209 188 191 194 150 164 215 168 117 19 1 101 64 317 269 50 16 100 143 179 173 137 49 55 128 172 102 156 246 213 164 239 249 227 247 54 111 160 164 165 154 136 144 150 147 145 138 131 122
150 146 144 166 176 172 162 157 156 156 159 189 194 200 181 110 158 137 132 129 135 149 155 156 174 193 183 180 177 178 173 160 171 185 168 177 212 186 178 197 199 191 193 85 141 214 146 128 59 1 131 70 336 219 136 75 12 346 202 152 123 197 204 178 185 167 186 229 238 201 244 262 221 215 13 169 182 182 178 152 143 157 157 153 153 147 138 131
141 139 145 173 175 170 162 155 150 148 171 193 198 206 164 110 141 164 162 141 135 155 169 160 148 206 192 183 159 160 183 177 161 173 180 188 211 182 178 186 189 188 183 139 165 171 110 176 151 72 308 6 352 227 193 170 103 38 160 145 353 274 216 186 171 177 202 208 225 218 209 237 218 211 226 215 193 183 174 158 164 168 161 160 157 151 152 149
143 137 148 172 174 169 159 148 139 161 198 202 200 194 145 125 142 240 269 146 129 159 174 168 167 162 170 171 147 158 189 180 165 184 194 182 189 214 196 187 161 164 160 106 146 157 111 220 163 106 344 210 187 216 212 183 154 152 169 170 180 176 31 238 174 91 226 200 204 232 239 235 206 203 219 213 165 168 172 168 177 171 162 159 154 155 157 149
158 135 142 171 175 166 153 146 157 188 194 204 182 146 150 151 141 152 248 48 64 2 130 149 157 155 148 156 158 159 165 158 176 192 202 189 195 219 209 188 157 141 135 114 160 168 157 170 139 134 175 194 202 321 299 264 183 171 188 185 183 159 138 192 200 152 0 245 198 221 263 255 155 188 229 206 100 181 192 181 177 168 164 157 151 161 159 149
164 132 142 174 175 164 155 160 174 179 190 187 133 102 127 141 135 149 159 108 72 42 47 111 136 144 149 160 163 155 154 160 179 191 210 210 208 214 206 180 155 152 157 158 170 165 104 104 115 136 181 217 300 340 247 282 313 290 262 216 184 179 178 198 205 175 136 126 83 72 281 273 112 146 240 228 200 251 281 204 173 164 166 158 152 161 159 146
154 108 113 170 175 168 162 173 172 179 208 178 90 57 85 126 122 145 168 177 132 107 122 137 139 161 175 163 156 160 167 171 184 197 209 209 209 228 177 155 148 157 165 153 152 155 105 115 116 102 84 344 298 233 142 354 269 237 240 207 185 203 195 185 199 153 150 166 161 167 246 255 128 135 239 247 250 253 257 226 180 165 168 164 161 164 160 148
113 102 74 163 175 178 181 181 184 187 169 137 106 87 75 84 119 152 172 180 173 142 144 145 159 175 169 151 154 171 177 180 201 207 207 189 192 5 147 161 156 164 179 175 171 179 182 160 132 121 129 146 199 209 200 202 213 225 220 173 177 145 94 83 98 145 193 201 185 196 240 243 138 110 221 206 228 225 216 217 193 174 170 167 167 165 159 150
100 100 45 146 171 184 204 193 188 171 151 148 144 137 130 75 61 163 163 151 127 148 146 146 168 124 126 141 123 166 186 186 191 197 190 169 180 29 22 183 174 177 186 134 148 164 183 179 157 162 169 171 192 205 204 193 186 207 193 171 184 175 158 158 153 173 216 200 177 206 237 237 108 193 212 175 206 207 177 178 202 191 176 172 171 166 159 154
122 123 118 118 132 194 227 343 182 164 162 161 154 152 150 129 82 359 113 142 168 147 107 95 147 104 120 159 139 165 197 201 36 177 185 179 163 36 328 210 190 184 85 93 143 149 149 192 190 196 198 195 201 205 188 142 146 189 201 187 186 187 182 169 125 190 206 163 171 224 236 234 200 204 206 189 200 206 173 167 184 192 187 182 170 159 152 150
131 128 146 131 110 180 164 24 177 171 172 170 164 163 151 134 130 109 22 206 179 157 77 63 169 171 166 170 161 176 193 186 55 169 175 164 140 2 341 134 165 355 50 135 172 140 118 198 203 211 221 220 205 179 159 151 172 202 201 182 176 179 179 183 202 213 185 128 218 232 228 233 224 195 201 203 194 203 191 183 188 185 178 171 153 152 154 157
97 87 1 325 125 164 168 177 169 161 169 175 167 154 154 147 151 158 137 51 139 183 177 145 202 202 180 170 166 158 170 173 190 175 145 142 149 118 46 66 168 288 61 147 179 123 154 204 202 203 224 231 167 103 173 175 184 206 195 181 178 174 178 191 212 219 177 168 235 233 215 226 220 181 203 215 194 197 198 186 177 159 156 157 158 169 171 169
79 105 323 330 44 100 118 140 143 148 165 173 167 174 175 171 167 159 119 117 149 209 212 187 198 200 185 179 172 158 166 177 193 198 165 145 153 141 119 123 186 305 88 141 169 156 177 201 188 185 220 230 187 129 195 177 167 190 189 186 179 175 189 198 212 220 200 207 239 236 203 229 216 173 203 222 183 184 153 121 140 158 168 171 173 183 182 173
98 115 75 37 67 76 93 128 139 144 161 176 181 184 185 181 174 153 122 162 165 174 194 192 174 154 166 193 184 183 192 186 187 191 170 149 165 184 176 180 164 107 115 157 161 204 204 197 162 157 214 230 185 131 181 173 180 192 179 177 174 179 199 209 218 221 211 227 243 241 251 254 219 160 200 224 91 110 127 156 179 181 178 179 184 189 183 174
102 63 55 93 72 74 104 126 140 145 161 186 189 175 185 192 180 145 144 224 173 166 176 166 143 115 99 193 203 216 208 188 185 189 174 164 177 185 181 186 159 146 164 182 156 165 192 190 106 140 206 226 184 144 151 111 97 197 174 182 184 186 199 208 217 216 206 222 234 235 260 257 182 145 187 177 140 174 184 187 191 188 186 187 190 188 181 177
106 62 41 84 69 57 114 113 141 164 170 187 181 157 177 189 167 149 172 218 59 178 170 152 148 131 120 191 209 217 175 146 118 172 172 161 148 149 142 164 163 159 165 174 164 157 174 167 129 171 201 218 48 141 141 107 92 232 216 198 190 195 205 206 215 220 211 215 219 218 234 227 140 152 190 190 184 199 203 199 192 190 193 193 192 187 180 177